Simultaneous Nadir Overpasses (SNOs) Predictions

Prediction of SNOs between FY3D and NOAA-19 Satellite Orbit:

Table of predicted SNOs for the next 14.0 days since TLE Epoch: 3/26/2022
Index Date (FY3D) Time (FY3D) Lat,Lon (FY3D) SZA (FY3D ) Date (NOAA-19) Time (NOAA-19) Lat,Lon (NOAA-19) SZA (NOAA-19 ) Distance(km) Time Diff (sec)
1 04/02/2022 14:44:06 -77.62, 121.06 106.84 04/02/2022 14:42:52 -77.62, 120.43 106.77 15.13 74
2 04/02/2022 15:34:54 77.68, -71.93 73.23 04/02/2022 15:33:45 77.69, -71.94 73.26 1.24 69
3 04/02/2022 16:25:39 -77.68, 95.37 106.79 04/02/2022 16:24:50 -77.70, 95.35 106.75 2.06 49
4 04/02/2022 17:16:26 77.70, -97.42 73.23 04/02/2022 17:15:45 77.69, -97.43 73.23 1.31 41
5 04/02/2022 18:07:11 -77.71, 69.87 106.78 04/02/2022 18:06:50 -77.70, 69.86 106.78 0.45 21
6 04/02/2022 18:57:58 77.73,-122.92 73.23 04/02/2022 18:57:45 77.69,-122.92 73.21 3.73 13
7 04/02/2022 19:48:43 -77.73, 44.38 106.78 04/02/2022 19:48:50 -77.71, 44.37 106.80 2.74 7
8 04/02/2022 20:39:29 77.71,-148.21 73.18 04/02/2022 20:39:44 77.73,-148.20 73.20 2.75 15
9 04/02/2022 21:30:14 -77.71, 19.09 106.83 04/02/2022 21:30:49 -77.75, 19.09 106.81 3.76 35
10 04/02/2022 22:21:01 77.73,-173.70 73.19 04/02/2022 22:21:44 77.73,-173.69 73.18 0.40 43
11 04/02/2022 23:11:46 -77.74, -6.41 106.83 04/02/2022 23:12:49 -77.75, -6.39 106.84 1.42 63
12 04/03/2022 00:02:33 77.76, 160.80 73.19 04/03/2022 00:03:44 77.74, 160.82 73.15 2.19 71



Historial Predications of SNOs between FY3D and NOAA-19
